| time (UTC) | temp F | wind direction | speed MPH | gust MPH | rain 1hr in | rain 24hr in | rain mn in | humidity % | barometer mb |
| 20260505124830 | 61 | 224 | 2.0 | 3.0 | 0.00 | 0.00 | 0.00 | 65 | 1012.4 |
| 20260505123829 | 62 | 200 | 2.0 | 7.0 | 0.00 | 0.00 | 0.00 | 64 | 1012.5 |
| 20260505122829 | 61 | 228 | 6.0 | 10.0 | 0.00 | 0.00 | 0.00 | 64 | 1012.3 |
| 20260505120830 | 60 | 216 | 2.0 | 4.0 | 0.00 | 0.00 | 0.00 | 63 | 1012.5 |
| 20260505115928 | 59 | 262 | 4.0 | 7.0 | 0.00 | 0.00 | 0.00 | 63 | 1012.4 |
| 20260505114947 | 58 | 222 | 4.0 | 8.0 | 0.00 | 0.00 | 0.00 | 63 | 1012.4 |
| 20260505114028 | 58 | 208 | 4.0 | 7.0 | 0.00 | 0.00 | 0.00 | 64 | 1012.5 |
| 20260505113029 | 57 | 216 | 2.0 | 4.0 | 0.00 | 0.00 | 0.00 | 63 | 1012.4 |
| 20260505112032 | 56 | 219 | 2.0 | 4.0 | 0.00 | 0.00 | 0.00 | 63 | 1012.4 |
| 20260505111030 | 55 | 218 | 4.0 | 8.0 | 0.00 | 0.00 | 0.00 | 62 | 1012.3 |
| 20260505101230 | 49 | 225 | 0.0 | 0.0 | 0.00 | 0.00 | 0.00 | 58 | 1012.0 |
| 20260505100329 | 49 | 225 | 0.0 | 0.0 | 0.00 | 0.00 | 0.00 | 58 | 1012.0 |
| 20260505095330 | 50 | 225 | 0.0 | 0.0 | 0.00 | 0.00 | 0.00 | 57 | 1012.0 |
| 20260505094332 | 50 | 225 | 1.0 | 2.0 | 0.00 | 0.00 | 0.00 | 58 | 1012.0 |
| 20260505093329 | 50 | 225 | 1.0 | 2.0 | 0.00 | 0.00 | 0.00 | 57 | 1012.2 |
| 20260505092329 | 50 | 225 | 0.0 | 1.0 | 0.00 | 0.00 | 0.00 | 56 | 1012.1 |
| 20260505090331 | 50 | 225 | 0.0 | 0.0 | 0.00 | 0.00 | 0.00 | 56 | 1012.2 |
| 20260505085428 | 50 | 225 | 0.0 | 0.0 | 0.00 | 0.00 | 0.00 | 54 | 1012.2 |
| 20260505084528 | 50 | 215 | 1.0 | 3.0 | 0.00 | 0.00 | 0.00 | 54 | 1012.2 |
| 20260505083529 | 50 | 225 | 0.0 | 1.0 | 0.00 | 0.00 | 0.00 | 54 | 1012.4 |
| 20260505081529 | 50 | 201 | 2.0 | 3.0 | 0.00 | 0.00 | 0.00 | 52 | 1012.5 |
| 20260505080529 | 50 | 225 | 0.0 | 2.0 | 0.00 | 0.00 | 0.00 | 52 | 1012.5 |
| 20260505075544 | 50 | 235 | 1.0 | 3.0 | 0.00 | 0.00 | 0.00 | 51 | 1012.6 |
| 20260505074529 | 50 | 225 | 1.0 | 2.0 | 0.00 | 0.00 | 0.00 | 51 | 1012.4 |
| 20260505073628 | 51 | 225 | 0.0 | 1.0 | 0.00 | 0.00 | 0.00 | 50 | 1012.6 |
| 20260505072632 | 51 | 225 | 2.0 | 4.0 | 0.00 | 0.00 | 0.00 | 50 | 1012.6 |
| 20260505071629 | 51 | 225 | 1.0 | 2.0 | 0.00 | 0.00 | 0.00 | 49 | 1012.6 |
| 20260505070630 | 51 | 220 | 1.0 | 3.0 | 0.00 | 0.00 | 0.00 | 48 | 1012.7 |
| 20260505065648 | 51 | 225 | 0.0 | 2.0 | 0.00 | 0.00 | 0.00 | 49 | 1012.7 |
| 20260505064228 | 51 | 225 | 1.0 | 2.0 | 0.00 | 0.00 | 0.00 | 47 | 1012.7 |
| 20260505063230 | 51 | 202 | 0.0 | 1.0 | 0.00 | 0.00 | 0.00 | 46 | 1012.7 |
| 20260505062230 | 51 | 211 | 2.0 | 4.0 | 0.00 | 0.00 | 0.00 | 46 | 1013.0 |
| 20260505061230 | 51 | 202 | 0.0 | 1.0 | 0.00 | 0.00 | 0.00 | 45 | 1012.8 |
| 20260505060229 | 52 | 225 | 0.0 | 0.0 | 0.00 | 0.00 | 0.00 | 45 | 1012.8 |
| 20260505055228 | 52 | 225 | 1.0 | 2.0 | 0.00 | 0.00 | 0.00 | 44 | 1012.9 |
| 20260505054229 | 53 | 225 | 0.0 | 2.0 | 0.00 | 0.00 | 0.00 | 45 | 1012.8 |
| 20260505053328 | 54 | 226 | 1.0 | 3.0 | 0.00 | 0.00 | 0.00 | 45 | 1013.0 |
| 20260505052330 | 54 | 225 | 2.0 | 4.0 | 0.00 | 0.00 | 0.00 | 44 | 1013.0 |
| 20260505051428 | 54 | 226 | 2.0 | 3.0 | 0.00 | 0.00 | 0.00 | 44 | 1013.0 |
| 20260505041430 | 55 | 222 | 1.0 | 3.0 | 0.00 | 0.00 | 0.00 | 41 | 1013.0 |
| 20260505040429 | 55 | 214 | 1.0 | 3.0 | 0.00 | 0.00 | 0.00 | 41 | 1012.8 |
| 20260505035433 | 56 | 224 | 2.0 | 3.0 | 0.00 | 0.00 | 0.00 | 39 | 1012.9 |
| 20260505034434 | 56 | 228 | 2.0 | 4.0 | 0.00 | 0.00 | 0.00 | 40 | 1012.8 |
| 20260505033532 | 56 | 225 | 1.0 | 2.0 | 0.00 | 0.00 | 0.00 | 39 | 1012.7 |
| 20260505032533 | 57 | 204 | 3.0 | 6.0 | 0.00 | 0.00 | 0.00 | 39 | 1012.8 |
| 20260505031534 | 57 | 207 | 3.0 | 5.0 | 0.00 | 0.00 | 0.00 | 38 | 1012.7 |
| 20260505030632 | 57 | 204 | 1.0 | 3.0 | 0.00 | 0.00 | 0.00 | 38 | 1012.8 |
| 20260505024649 | 58 | 222 | 1.0 | 2.0 | 0.00 | 0.00 | 0.00 | 38 | 1012.6 |
| 20260505023634 | 58 | 234 | 4.0 | 7.0 | 0.00 | 0.00 | 0.00 | 37 | 1012.7 |
| 20260505021634 | 58 | 226 | 5.0 | 12.0 | 0.00 | 0.00 | 0.00 | 37 | 1012.8 |
| 20260505015735 | 59 | 240 | 3.0 | 5.0 | 0.00 | 0.00 | 0.00 | 36 | 1012.7 |
| 20260505014732 | 59 | 214 | 4.0 | 6.0 | 0.00 | 0.00 | 0.00 | 36 | 1012.7 |
| 20260505013832 | 59 | 230 | 3.0 | 5.0 | 0.00 | 0.00 | 0.00 | 34 | 1012.5 |
| 20260505012832 | 60 | 204 | 1.0 | 4.0 | 0.00 | 0.00 | 0.00 | 35 | 1012.7 |
| 20260505005834 | 61 | 211 | 6.0 | 10.0 | 0.00 | 0.00 | 0.00 | 34 | 1012.1 |
| 20260505004835 | 61 | 213 | 5.0 | 9.0 | 0.00 | 0.00 | 0.00 | 34 | 1012.0 |
| 20260505003833 | 62 | 214 | 4.0 | 9.0 | 0.00 | 0.00 | 0.00 | 34 | 1011.8 |
| 20260505002933 | 62 | 231 | 3.0 | 7.0 | 0.00 | 0.00 | 0.00 | 34 | 1011.4 |
| 20260505001933 | 62 | 222 | 5.0 | 10.0 | 0.00 | 0.00 | 0.00 | 33 | 1011.3 |
| 20260505000933 | 63 | 221 | 2.0 | 3.0 | 0.00 | 0.00 | 0.00 | 34 | 1011.1 |
| 20260504235932 | 63 | 214 | 8.0 | 14.0 | 0.00 | 0.00 | 0.00 | 33 | 1010.9 |
| 20260504234935 | 64 | 205 | 3.0 | 6.0 | 0.00 | 0.00 | 0.00 | 33 | 1010.6 |
| 20260504234032 | 64 | 232 | 5.0 | 8.0 | 0.00 | 0.00 | 0.00 | 32 | 1010.3 |
| 20260504233036 | 65 | 252 | 2.0 | 4.0 | 0.00 | 0.00 | 0.00 | 32 | 1010.3 |
| 20260504231034 | 67 | 243 | 7.0 | 12.0 | 0.00 | 0.00 | 0.00 | 33 | 1009.8 |
| 20260504225034 | 69 | 218 | 3.0 | 5.0 | 0.00 | 0.00 | 0.00 | 33 | 1009.3 |
| 20260504224033 | 70 | 256 | 1.0 | 3.0 | 0.00 | 0.00 | 0.00 | 33 | 1009.2 |
| 20260504222133 | 70 | 243 | 3.0 | 5.0 | 0.00 | 0.00 | 0.00 | 33 | 1009.0 |
| 20260504221150 | 71 | 238 | 3.0 | 6.0 | 0.00 | 0.00 | 0.00 | 34 | 1009.1 |
| 20260504220233 | 71 | 242 | 5.0 | 10.0 | 0.00 | 0.00 | 0.00 | 34 | 1009.1 |
| 20260504215232 | 71 | 267 | 2.0 | 5.0 | 0.00 | 0.00 | 0.00 | 34 | 1009.2 |
| 20260504214233 | 71 | 210 | 1.0 | 4.0 | 0.00 | 0.00 | 0.00 | 34 | 1009.2 |
| 20260504213233 | 71 | 249 | 2.0 | 5.0 | 0.00 | 0.00 | 0.00 | 34 | 1009.2 |
| 20260504212233 | 71 | 223 | 6.0 | 14.0 | 0.00 | 0.00 | 0.00 | 35 | 1009.2 |
| 20260504210233 | 72 | 239 | 3.0 | 8.0 | 0.00 | 0.00 | 0.00 | 35 | 1009.1 |
| 20260504204333 | 72 | 222 | 4.0 | 8.0 | 0.00 | 0.00 | 0.00 | 35 | 1009.2 |
| 20260504202433 | 71 | 208 | 6.0 | 12.0 | 0.00 | 0.00 | 0.00 | 35 | 1009.1 |
| 20260504201434 | 71 | 233 | 4.0 | 10.0 | 0.00 | 0.00 | 0.00 | 36 | 1009.2 |
| 20260504195531 | 71 | 248 | 4.0 | 8.0 | 0.00 | 0.00 | 0.00 | 37 | 1009.3 |
| 20260504194535 | 71 | 231 | 3.0 | 8.0 | 0.00 | 0.00 | 0.00 | 38 | 1009.3 |
| 20260504193533 | 71 | 313 | 3.0 | 8.0 | 0.00 | 0.00 | 0.00 | 37 | 1009.0 |
| 20260504192533 | 70 | 286 | 6.0 | 10.0 | 0.00 | 0.00 | 0.00 | 39 | 1009.3 |
| 20260504191533 | 70 | 238 | 6.0 | 11.0 | 0.00 | 0.00 | 0.00 | 38 | 1009.3 |
| 20260504190534 | 70 | 237 | 7.0 | 17.0 | 0.00 | 0.00 | 0.00 | 39 | 1009.5 |
| 20260504185534 | 70 | 225 | 10.0 | 16.0 | 0.00 | 0.00 | 0.00 | 39 | 1009.2 |
| 20260504184536 | 70 | 292 | 4.0 | 11.0 | 0.00 | 0.00 | 0.00 | 40 | 1009.7 |
| 20260504183533 | 70 | 224 | 8.0 | 13.0 | 0.00 | 0.00 | 0.00 | 40 | 1009.8 |
| 20260504182533 | 69 | 233 | 7.0 | 11.0 | 0.00 | 0.00 | 0.00 | 41 | 1009.8 |
| 20260504181534 | 69 | 231 | 7.0 | 14.0 | 0.00 | 0.00 | 0.00 | 41 | 1009.9 |
| 20260504180534 | 68 | 218 | 5.0 | 12.0 | 0.00 | 0.00 | 0.00 | 42 | 1009.7 |
| 20260504175633 | 68 | 207 | 11.0 | 18.0 | 0.00 | 0.00 | 0.00 | 43 | 1010.0 |
| 20260504173633 | 68 | 259 | 2.0 | 5.0 | 0.00 | 0.00 | 0.00 | 44 | 1010.2 |
| 20260504172731 | 68 | 240 | 7.0 | 14.0 | 0.00 | 0.00 | 0.00 | 44 | 1010.3 |
| 20260504171734 | 67 | 256 | 6.0 | 9.0 | 0.00 | 0.00 | 0.00 | 45 | 1010.4 |
| 20260504170733 | 67 | 206 | 4.0 | 7.0 | 0.00 | 0.00 | 0.00 | 45 | 1010.4 |
| 20260504150834 | 64 | 239 | 5.0 | 10.0 | 0.00 | 0.00 | 0.00 | 53 | 1011.7 |